Location: *
(13.2257°S, 48.7193°W)
Time: 13:13:25
(UTC+00:00)

Cosmos 990 Rocket - Pass Details

Date: 13 February 2026
Orbit: 742 x 763 km, 74.0° (Epoch: 11 March)

Event Time Altitude Azimuth Distance (km) Brightness Sun altitude
Rises 08:01:34 0° 206° (SSW) 3,212 7.2 -17.5°
Reaches altitude 10° 08:04:03 10° 213° (SSW) 2,286 6.3 -16.9°
Maximum altitude 08:08:50 38° 281° (W) 1,136 4.4 -15.8°
Drops below altitude 10° 08:13:37 10° 349° (NNW) 2,280 6.2 -14.7°
Sets 08:16:07 0° 356° (N) 3,202 7.0 -14.1°
